Regional Weather Roundup
Issued by NWS Little Rock, AR

Home | Current Version | Previous Version | Graphics & Text | Print | Product List | Glossary On
Versions: 1 2 3 4 5 6 7 8 9 10 11 12 13 14 15 16 17 18 19 20 21 22 23 24 25 26 27 28 29 30 31 32 33 34 35 36 37 38 39 40 41 42 43 44 45 46 47 48 49 50
000
ASUS44 KLZK 271705
RWRLZK

WEATHER ROUNDUP FOR ARKANSAS
NATIONAL WEATHER SERVICE LITTLE ROCK AR
1100 AM CST THU NOV 27 2014

NOTE: "FAIR" INDICATES FEW OR NO CLOUDS BELOW 12,000 FEET WITH NO
SIGNIFICANT WEATHER AND/OR OBSTRUCTIONS TO VISIBILITY.

ARZ001-003-010-029-271800-
NORTHWEST ARKANSAS

CITY           SKY/WX    TMP DP  RH WIND       PRES   REMARKS
FAYETTEVILLE   MOSUNNY   33  26  75 VRB3      30.54F
FORT SMITH     SUNNY     40  24  53 CALM      30.57F
HARRISON       SUNNY     37  25  61 W5        30.50F
BENTONVILLE    CLOUDY    34  25  69 S3        30.55R
ROGERS         SUNNY     32  24  72 VRB3      30.53F
SILOAM SPGS    FAIR      32  21  64 CALM      30.56S
HIGHFILL       PTSUNNY   32  25  75 S6        30.54S WCI  26
SPRINGDALE     CLOUDY    30  25  80 W7        30.55F WCI  23
$$

ARZ004-005-016-271800-
NORTH CENTRAL ARKANSAS

CITY           SKY/WX    TMP DP  RH WIND       PRES   REMARKS
BATESVILLE     SUNNY     43  25  49 N5        30.53S
FLIPPIN        SUNNY     39  23  52 CALM      30.52F
MTN HOME       SUNNY     39  26  59 CALM      30.50F
$$

ARZ040-041-271800-
WEST CENTRAL ARKANSAS

CITY           SKY/WX    TMP DP  RH WIND       PRES   REMARKS
MENA           SUNNY     43  28  56 N5        30.53F
MOUNT IDA      SUNNY     43  25  49 CALM      30.52S
$$

ARZ009-017-025-026-028-271800-
NORTHEAST ARKANSAS

CITY           SKY/WX    TMP DP  RH WIND       PRES   REMARKS
CORNING          N/A     39  28  65 N10       30.52F
JONESBORO      MOSUNNY   42  31  64 NE9       30.51S
NEWPORT        SUNNY     43  29  58 N14G20    30.53S
WALNUT RIDGE   MOSUNNY   43  27  52 N14G22    30.52R
BLYTHEVILLE    CLOUDY    49  31  49 N16       30.51R
$$

ARZ022-023-033-042-044-271800-
CENTRAL ARKANSAS

CITY           SKY/WX    TMP DP  RH WIND       PRES   REMARKS
LITTLE ROCK    MOSUNNY   45  24  43 CALM      30.57S
N LITTLE ROCK  MOSUNNY   42  29  58 N5        30.57S
JACKSONVILLE   SUNNY     43  27  52 NW8       30.55S
SEARCY         MOSUNNY   42  27  55 CALM      30.57R
HOT SPRINGS    SUNNY     43  27  53 MISG      30.55F
RUSSELLVILLE   SUNNY     42  26  53 N8        30.55F
CLINTON        FAIR      41  27  56 SW6       30.56S
$$

ARZ036-271800-
EAST ARKANSAS

CITY           SKY/WX    TMP DP  RH WIND       PRES   REMARKS
WEST MEMPHIS   PTSUNNY   44  32  62 NE15G21   30.50R
$$

ARZ050-053-066-070-073-271800-
SOUTHWEST ARKANSAS

CITY           SKY/WX    TMP DP  RH WIND       PRES   REMARKS
ARKADELPHIA    FAIR      44  29  56 VRB3      30.58F
CAMDEN         SUNNY     48  27  43 MISG      30.57F
TEXARKANA      SUNNY     46  26  45 VRB5      30.55F
EL DORADO      SUNNY     46  28  49 N6        30.55F
DE QUEEN       SUNNY     47  27  45 N6        30.54F
$$

ARZ056-057-069-271800-
SOUTHEAST ARKANSAS

CITY           SKY/WX    TMP DP  RH WIND       PRES   REMARKS
PINE BLUFF     LGT RAIN  42  27  55 VRB5      30.57S
STUTTGART      PTSUNNY   43  27  52 NE6       30.56S
MONTICELLO     MOSUNNY   45  27  49 VRB3      30.55S

$$





USA.gov is the U.S. government's official web portal to all federal, state and local government web resources and services.